DW4277 Weather Reports


time (UTC)temp
F
wind
direction
speed
knots
gust
knots
rain 1hr
in
rain 24hr
in
rain mn
in
humidity
%
barometer
mb
20260502224516 54 117 0.0 0.0 0.00 0.00 0.00 66 1017.5
20260502223032 54 117 0.0 0.0 0.00 0.00 0.00 66 1017.6
20260502221509 55 117 0.0 0.0 0.00 0.00 0.00 66 1017.7
20260502220007 56 117 0.0 0.0 0.00 0.00 0.00 65 1017.5
20260502214505 57 117 0.0 0.0 0.00 0.00 0.00 65 1017.6
20260502213005 58 117 0.0 0.0 0.00 0.00 0.00 63 1017.7
20260502211504 58 117 0.0 0.0 0.00 0.00 0.00 60 1017.7
20260502210004 59 117 0.0 0.0 0.00 0.00 0.00 57 1017.7
20260502204504 60 117 0.0 0.0 0.00 0.00 0.00 55 1017.9
20260502203004 61 117 0.0 0.0 0.00 0.00 0.00 56 1017.9
20260502201503 62 117 0.0 0.0 0.00 0.00 0.00 52 1018.1
20260502200003 62 117 0.0 0.0 0.00 0.00 0.00 49 1018.1
20260502194503 63 117 0.0 0.0 0.00 0.00 0.00 47 1018.2
20260502193002 64 117 0.0 0.0 0.00 0.00 0.00 46 1018.2
20260502191501 66 117 0.0 0.0 0.00 0.00 0.00 45 1018.1
20260502190100 67 117 0.0 0.0 0.00 0.00 0.00 44 1018.1
20260502184600 68 117 0.0 0.0 0.00 0.00 0.00 39 1017.9
20260502183108 69 117 0.0 0.0 0.00 0.00 0.00 39 1017.8
20260502181601 69 117 0.0 0.0 0.00 0.00 0.00 37 1017.6
20260502163106 74 109 2.6 8.7 0.00 0.00 0.00 32 1017.9
20260502161604 75 114 2.6 8.7 0.00 0.00 0.00 32 1018.1
20260502151544 76 75 0.0 8.7 0.00 0.00 0.00 30 1018.6
20260502123031 75 61 0.0 7.0 0.00 0.00 0.00 32 1020.5
20260502121525 74 101 0.0 9.6 0.00 0.00 0.00 33 1020.8
20260502114516 74 158 0.9 6.1 0.00 0.00 0.00 35 1021.3
20260502113014 73 163 5.2 13.0 0.00 0.00 0.00 37 1021.4
20260502111511 71 132 0.0 12.2 0.00 0.00 0.00 35 1021.6
20260502110012 73 23 0.9 11.3 0.00 0.00 0.00 33 1021.7
20260502104514 71 96 4.3 11.3 0.00 0.00 0.00 35 1022.0
20260502103003 70 98 0.0 7.0 0.00 0.00 0.00 37 1022.3
20260502101605 70 77 5.2 13.9 0.00 0.00 0.00 36 1022.4
20260502100104 69 61 0.0 14.8 0.00 0.00 0.00 36 1022.5
20260502071512 63 25 0.9 10.4 0.00 0.00 0.00 50 1023.7
20260502070015 62 23 7.0 12.2 0.00 0.00 0.00 52 1023.7
20260502064505 61 11 0.0 6.1 0.00 0.00 0.00 60 1023.7
20260502063101 59 20 0.0 0.0 0.00 0.00 0.00 61 1023.7
20260502061556 58 20 0.0 0.0 0.00 0.00 0.00 64 1023.8
20260502060054 57 20 0.0 0.0 0.00 0.00 0.00 66 1023.8
20260502054548 54 20 0.0 0.0 0.00 0.00 0.00 70 1023.7
20260502053042 52 20 0.0 0.0 0.00 0.00 0.00 73 1023.8
20260502051551 51 20 0.0 0.0 0.00 0.00 0.00 75 1023.7
20260502050042 50 20 0.0 0.0 0.00 0.00 0.00 76 1023.6
20260502044531 50 20 0.0 0.0 0.00 0.00 0.00 76 1023.6
20260502043031 50 20 0.0 0.0 0.00 0.00 0.00 74 1023.5
20260502041523 49 20 0.0 0.0 0.00 0.00 0.00 74 1023.5
20260502040018 48 20 0.0 0.0 0.00 0.00 0.00 76 1023.6
20260502034517 48 20 0.0 0.0 0.00 0.00 0.00 77 1023.6
20260502033014 48 17 0.0 0.0 0.00 0.00 0.00 77 1023.5
20260502031512 48 17 0.0 0.0 0.00 0.00 0.00 75 1023.4
20260502030009 49 17 0.0 0.0 0.00 0.00 0.00 71 1023.4
20260502024507 51 17 0.0 0.0 0.00 0.00 0.00 68 1023.4
20260502023008 52 2 0.0 0.0 0.00 0.00 0.00 67 1023.2
20260502021505 52 2 0.0 7.0 0.00 0.00 0.00 67 1023.2
20260502020005 52 2 0.0 0.0 0.00 0.00 0.00 67 1023.3
20260502014506 52 2 0.0 0.0 0.00 0.00 0.00 67 1023.3
20260502013006 51 2 0.0 0.0 0.00 0.00 0.00 69 1023.4
20260502011502 50 2 0.0 0.0 0.00 0.00 0.00 71 1023.4
20260502010058 51 2 0.0 0.0 0.00 0.00 0.00 70 1023.5
20260502004555 53 2 0.0 0.0 0.00 0.00 0.00 67 1023.5
20260502003053 53 2 0.0 0.0 0.00 0.00 0.00 66 1023.6
20260502001555 53 2 0.0 4.3 0.00 0.00 0.00 66 1023.7
20260502000058 53 2 0.0 0.0 0.00 0.00 0.00 66 1023.7
20260501234548 54 2 0.0 0.0 0.00 0.00 0.00 67 1023.9
20260501233044 54 2 0.0 0.0 0.00 0.00 0.00 62 1024.0
20260501231545 55 2 0.0 0.0 0.00 0.00 0.00 62 1024.0
20260501230041 56 2 0.0 14.8 0.00 0.00 0.00 60 1024.0